Chadron, NE

6:54 AM MDT on August 26, 2016 (GMT -0600)
Chadron Municipal

Weather History for KCDR - March, 2013

Change the Weather History Date:

Sunday, March 10, 2013

  Actual Average Record
Temperature  
Mean Temperature 31 °F 34 °F  
Max Temperature 43 °F 49 °F 81 °F (1972)
Min Temperature 19 °F 19 °F -18 °F (1948)
Degree Days  
Heating Degree Days 34 31  
Month to date heating degree days 279 323  
Since 1 July heating degree days 5175 5575  
Cooling Degree Days 0 0  
Month to date cooling degree days 0 0  
Year to date cooling degree days 0 0  
Moisture  
Dew Point 14 °F    
Average Humidity 51    
Maximum Humidity 77    
Minimum Humidity 25    
Precipitation  
Precipitation 0.00 in 0.03 in 0.35 in (2010)
Month to date precipitation 0.03 0.35  
Year to date precipitation 0.88 1.32  
Sea Level Pressure  
Sea Level Pressure 30.20 in    
Wind  
Wind Speed 8 mph (NNE)    
Max Wind Speed 20 mph    
Max Gust Speed 25 mph    
Visibility 9 miles    
Events      
T = Trace of Precipitation, MM = Missing Value Source: NWS Daily Summary

Daily Weather History Graph

Daily Weather History Graph

Search for Another Location

Airport or City:

Trip Planner

Search our weather history database for the weather conditions in past years. The results will help you decide how hot, cold, wet, or windy it might be!

Date:

Astronomy

Mar. 10, 2013 Rise Set
Actual Time 7:12 AM MDT 6:53 PM MDT
Civil Twilight 6:44 AM MDT 7:21 PM MDT
Nautical Twilight 6:11 AM MDT 7:54 PM MDT
Astronomical Twilight 5:38 AM MDT 8:27 PM MDT
Moon 6:14 AM MDT (3/10) 6:03 PM MDT (3/10)
Length of Visible Light 12h 37m
Length of Day
11h 40m
Waning Crescent, 1% of the Moon is Illuminated
Mar 10
Waning Crescent
Mar 11
New
Mar 19
First Quarter
Mar 27
Full
Apr 2
Last Quarter

Hourly Weather History & Observations

Time (MDT) Temp. Windchill Dew Point Humidity Pressure Visibility Wind Dir Wind Speed Gust Speed Precip Events Conditions
12:53 AM 28.0 °F 16.1 °F 19.0 °F 69% 30.19 in 9.0 mi NE 16.1 mph - N/A   Overcast
3:39 AM 26.6 °F 21.2 °F 17.6 °F 69% 30.13 in 10.0 mi NNW 4.6 mph - N/A   Overcast
3:53 AM 25.0 °F 19.3 °F 17.1 °F 72% 30.22 in 10.0 mi North 4.6 mph - N/A   Overcast
4:27 AM 24.8 °F 15.3 °F 15.8 °F 69% 30.13 in 10.0 mi North 9.2 mph - N/A   Overcast
4:53 AM 24.1 °F 17.0 °F 16.0 °F 71% 30.25 in 9.0 mi NNW 5.8 mph - N/A   Overcast
6:41 AM 21.2 °F 8.3 °F 15.8 °F 80% 30.19 in 8.0 mi NNE 13.8 mph - N/A   Overcast
6:53 AM 21.9 °F 11.0 °F 16.0 °F 78% 30.30 in 7.0 mi NNE 10.4 mph - N/A   Overcast
7:53 AM 21.9 °F 12.5 °F 15.1 °F 75% 30.32 in 6.0 mi North 8.1 mph - N/A   Haze
8:23 AM 21.2 °F 10.9 °F 15.8 °F 80% 30.20 in 6.0 mi North 9.2 mph - N/A   Haze
8:53 AM 23.0 °F 11.7 °F 15.1 °F 72% 30.32 in 7.0 mi North 11.5 mph - N/A   Clear
9:53 AM 27.0 °F 16.1 °F 16.0 °F 63% 30.31 in 8.0 mi North 12.7 mph - N/A   Partly Cloudy
10:53 AM 30.0 °F 20.5 °F 16.0 °F 56% 30.30 in 8.0 mi North 11.5 mph 18.4 mph N/A   Partly Cloudy
11:53 AM 34.0 °F 23.4 °F 14.0 °F 44% 30.28 in 10.0 mi North 17.3 mph 23.0 mph N/A   Clear
12:53 PM 36.0 °F 29.0 °F 12.9 °F 39% 30.24 in 10.0 mi North 9.2 mph - N/A   Clear
1:53 PM 37.9 °F 30.9 °F 12.9 °F 36% 30.21 in 10.0 mi NNW 10.4 mph 18.4 mph N/A   Clear
2:53 PM 39.9 °F 35.1 °F 10.9 °F 31% 30.18 in 10.0 mi NE 6.9 mph - N/A   Clear
3:53 PM 42.1 °F 37.1 °F 10.0 °F 27% 30.16 in 10.0 mi NNE 8.1 mph 18.4 mph N/A   Clear
4:53 PM 41.0 °F 35.8 °F 9.0 °F 27% 30.14 in 10.0 mi ENE 8.1 mph - N/A   Clear
5:53 PM 39.9 °F 34.5 °F 8.1 °F 27% 30.15 in 10.0 mi ENE 8.1 mph - N/A   Clear
6:53 PM 33.1 °F 26.9 °F 10.9 °F 40% 30.17 in 10.0 mi East 6.9 mph - N/A   Clear
7:53 PM 28.9 °F 25.2 °F 10.0 °F 45% 30.18 in 10.0 mi East 3.5 mph - N/A   Clear
8:53 PM 23.0 °F - 10.9 °F 60% 30.18 in 9.0 mi Calm Calm - N/A   Clear
9:53 PM 19.9 °F - 10.9 °F 68% 30.17 in 10.0 mi Calm Calm - N/A   Clear
10:53 PM 19.0 °F 12.3 °F 10.9 °F 71% 30.14 in 10.0 mi WSW 4.6 mph - N/A   Clear
11:53 PM 19.0 °F 13.9 °F 12.0 °F 74% 30.10 in 10.0 mi WSW 3.5 mph - N/A   Clear
12:53 AM 21.9 °F - 14.0 °F 72% 30.07 in 9.0 mi Calm Calm - N/A   Clear